Tracking 29892 objects as of 21-Nov-2024
HD Live streaming from Space Station
objects crossing your sky now

STARLINK-4051

Track STARLINK-4051 now!
10-day predictions
STARLINK-4051 is classified as:


NORAD ID: 53273
Int'l Code: 2022-086AH
Perigee: 545.8 km
Apogee: 547.9 km
Inclination: 53.2 °
Period: 95.4 minutes
Semi major axis: 6917 km
RCS: Unknown
Launch date: July 24, 2022
Source: United States (US)
Launch site: AIR FORCE EASTERN TEST RANGE (AFETR)
Your satellite tracking list
Your tracking list is empty




NASA's NSSDC Master Catalog

Two Line Element Set (TLE):
1 53273U 22086AH  24324.95323061  .00002118  00000-0  15109-3 0  9993
2 53273  53.2162 155.2944 0001517  88.6486 271.4680 15.08846144129523
Source of the keplerian elements: AFSPC